Location: Klinovec
(50.3970°N, 12.9600°E)
Time: 22:07:10
(UTC+01:00)

N. Korean satellite - Pass Details

Date: 23 November 2019
Orbit: 455 x 507 km, 97.2° (Epoch: 13 December)

Event Time Altitude Azimuth Distance (km) Brightness Sun altitude
Rises 05:23:57 0° 22° (NNE) 2,616 10.5 -20.3°
Reaches altitude 10° 05:26:19 10° 35° (NE) 1,720 9.7 -19.9°
Maximum altitude 05:29:29 26° 94° (E) 1,005 8.9 -19.4°
Drops below altitude 10° 05:32:36 10° 153° (SSE) 1,686 9.8 -18.9°
Sets 05:34:52 0° 166° (SSE) 2,553 10.5 -18.5°
